Nagpur Sonegaon, India

1:53 PM IST on January 24, 2018 (GMT +0530)
Nagpur

Weather History for VANP - February, 2014

Change the Weather History Date:

Thursday, February 6, 2014

  Actual Average Record
Temperature  
Mean Temperature 74 °F -  
Max Temperature 90 °F 90 °F - ()
Min Temperature 59 °F 61 °F - ()
Cooling Degree Days 10    
Growing Degree Days 24 (Base 50)    
Moisture  
Dew Point 53 °F    
Average Humidity 49    
Maximum Humidity 75    
Minimum Humidity 22    
Precipitation  
Precipitation 0.00 in 0.03 in - ()
Sea Level Pressure  
Sea Level Pressure 29.87 in    
Wind  
Wind Speed 2 mph ()    
Max Wind Speed 7 mph    
Max Gust Speed -    
Visibility 2.6 miles    
Events      
T = Trace of Precipitation, MM = Missing Value Source: Averaged Metar Reports

Daily Weather History Graph

Daily Weather History Graph

Search for Another Location

Airport or City:

Trip Planner

Search our weather history database for the weather conditions in past years. The results will help you decide how hot, cold, wet, or windy it might be!

Date:

Astronomy

Feb. 06, 2014 Rise Set
Actual Time 6:49 AM IST 6:06 PM IST
Civil Twilight 6:26 AM IST 6:29 PM IST
Nautical Twilight 5:59 AM IST 6:56 PM IST
Astronomical Twilight 5:33 AM IST 7:22 PM IST
Moon 11:20 AM IST (2/6) No Moon Set
Length of Visible Light 12h 03m
Length of Day
11h 17m
Waxing Crescent, 44% of the Moon is Illuminated
Feb 6
Waxing Crescent
Feb 7
First Quarter
Feb 15
Full
Feb 22
Last Quarter
Mar 1
New

Hourly Weather History & Observations

Time (IST) Temp. Heat Index Dew Point Humidity Pressure Visibility Wind Dir Wind Speed Gust Speed Precip Events Conditions
12:10 AM 66.2 °F - 51.8 °F 60% 29.89 in 2.5 mi South 2.3 mph - N/A   Haze
2:30 AM 65 °F - 56 °F 66% 29.84 in 1 mi NNW 2.3 mph - -   Haze
3:10 AM 60.8 °F - 50.0 °F 68% 29.86 in 2.5 mi Calm Calm - N/A   Haze
4:10 AM 62.6 °F - 48.2 °F 59% 29.86 in 2.5 mi Calm Calm - N/A   Haze
5:10 AM 62.6 °F - 50.0 °F 63% 29.86 in 2.5 mi Calm Calm - N/A   Haze
5:30 AM 61 °F - 55 °F 75% 29.86 in 1 mi Calm Calm - -   Haze
5:40 AM 62.6 °F - 50.0 °F 63% 29.86 in 2.5 mi Calm Calm - N/A   Haze
6:10 AM 59.0 °F - 48.2 °F 67% 29.89 in 2.5 mi Calm Calm - N/A   Haze
6:40 AM 59.0 °F - 41.0 °F 51% 29.89 in - North - - N/A   Haze
7:10 AM 59.0 °F - 48.2 °F 67% 29.89 in 2.5 mi NW 2.3 mph - N/A   Haze
7:40 AM 60.8 °F - 48.2 °F 63% 29.92 in 2.5 mi Calm Calm - N/A   Haze
8:10 AM 68.0 °F - 51.8 °F 56% 29.92 in 2.5 mi Calm Calm - N/A   Haze
8:30 AM 70 °F - 54 °F 46% 29.92 in 2 mi NNE 2.3 mph - -   Haze
8:40 AM 68.0 °F - 51.8 °F 56% 29.95 in 2.5 mi NNE 2.3 mph - N/A   Haze
9:40 AM 75.2 °F - 53.6 °F 47% 29.98 in 3.1 mi East 3.5 mph - N/A   Haze
10:10 AM 78.8 °F - 53.6 °F 42% 29.98 in 3.1 mi East 3.5 mph - N/A   Haze
11:10 AM 82.4 °F 81.7 °F 55.4 °F 39% 29.98 in 3.1 mi East 4.6 mph - N/A   Haze
11:30 AM 83 °F - 54 °F 26% 29.89 in 2 mi ESE 6.9 mph - -   Haze
12:10 PM 86.0 °F 84.5 °F 55.4 °F 35% 29.92 in 3.7 mi ESE 6.9 mph - N/A   Haze
1:10 PM 87.8 °F 86.5 °F 57.2 °F 35% 29.89 in 3.7 mi East 4.6 mph - N/A   Unknown
1:40 PM 87.8 °F 86.5 °F 57.2 °F 35% 29.86 in 3.7 mi NE 2.3 mph - N/A   Unknown
2:30 PM 89 °F - 55 °F 22% 29.77 in 2 mi ENE 5.8 mph - -   Scattered Clouds
3:10 PM 91.4 °F 89.4 °F 55.4 °F 29% 29.83 in 3.7 mi NNE 2.3 mph - N/A   Partly Cloudy
3:40 PM 89.6 °F 87.7 °F 55.4 °F 31% 29.80 in 3.7 mi East 4.6 mph - N/A   Partly Cloudy
4:10 PM 89.6 °F 87.3 °F 53.6 °F 29% 29.80 in 3.7 mi NE 3.5 mph - N/A   Scattered Clouds
4:40 PM 89.6 °F 87.7 °F 55.4 °F 31% 29.80 in 3.7 mi ENE 2.3 mph - N/A   Partly Cloudy
5:10 PM 87.8 °F 86.1 °F 55.4 °F 33% 29.80 in 3.1 mi East 2.3 mph - N/A   Scattered Clouds
5:30 PM 86 °F - 55 °F 25% 29.75 in 2 mi East 2.3 mph - -   Haze
5:40 PM 84.2 °F 83.0 °F 55.4 °F 37% 29.80 in 3.1 mi ESE 3.5 mph - N/A   Haze
6:40 PM 78.8 °F - 55.4 °F 44% 29.83 in 2.5 mi East 2.3 mph - N/A   Haze
7:10 PM 77.0 °F - 55.4 °F 47% 29.83 in 2.5 mi East 2.3 mph - N/A   Haze
8:10 PM 73.4 °F - 53.6 °F 50% 29.86 in 2.5 mi Calm Calm - N/A   Haze
8:30 PM 72 °F - 59 °F 55% 29.82 in 1 mi Calm Calm - -   Haze
8:40 PM 73.4 °F - 55.4 °F 53% 29.86 in 2.5 mi Calm Calm - N/A   Haze
9:40 PM 71.6 °F - 55.4 °F 57% 29.86 in 2.5 mi Calm Calm - N/A   Haze
10:40 PM 69.8 °F - 55.4 °F 60% 29.86 in 2.5 mi Calm Calm - N/A   Haze
11:10 PM 66.2 °F - 53.6 °F 64% 29.86 in 2.5 mi Calm Calm - N/A   Haze
11:30 PM 66 °F - 58 °F 69% 29.84 in 1 mi Calm Calm - -   Haze